[[{"header":{"parameterUnit":"m.s-1","parameterCategory":1,"la1":30.2991,"la2":30.254,"lo1":-89.0895,"lo2":-89.0444,"dy":0.0017,"dx":0.0017,"nx":28,"ny":28,"refTime":"2023-08-23T21:00:00:Z","depth":0,"parameterNumber":2,"parameterNumberName":"U-component_of_WINDS"},"data":[0,0,0,0,0,0,0,0,0,0,0,0,0,0,0,0,0,0,0,0,0,0,0,0,0,0,0,0,0,0,0,0,0,0,0,0,0,0,0,0,0,0,0,0,0,0,0,0,0,0,0,0,0,0,0,0,0,0,-0.8657,-0.8655,0,-0.8505,-0.8503,-0.8502,-0.8419,-0.8419,-0.8418,-0.8418,-0.8258,-0.8255,-0.8251,0,0,0,0,0,0,0,0,0,0,0,0,0,-0.8873,-0.887,-0.8657,-0.8655,-0.8653,-0.8505,-0.8503,-0.8501,-0.8419,-0.8418,-0.8418,-0.8418,-0.826,-0.8255,-0.825,0,0,0,0,0,0,0,0,0,0,0,0,0,-0.8756,-0.8868,-0.8658,-0.8595,-0.8587,-0.8506,-0.8503,-0.85,-0.8419,-0.8418,-0.8418,-0.8418,-0.8261,-0.8255,-0.8249,-0.8217,0,0,-0.8231,-0.8228,0,0,0,0,0,0,0,0,-0.8763,-0.8748,-0.8606,-0.8599,-0.8591,-0.8481,-0.8521,-0.8405,-0.8419,-0.8483,-0.8418,-0.8418,-0.8332,-0.832,-0.8292,-0.821,-0.8203,-0.823,-0.8227,-0.8224,-0.8222,0,0,0,0,0,0,0,-0.8771,-0.8754,-0.8597,-0.8604,-0.8595,-0.8573,-0.8556,-0.8498,-0.8411,-0.8477,-0.8471,-0.8454,-0.8328,-0.8298,-0.8288,-0.8201,-0.823,-0.8225,-0.8221,-0.8219,-0.8085,-0.8085,0,0,0,0,0,0,-0.879,-0.8762,-0.8602,-0.8592,-0.8678,-0.8569,-0.855,-0.8516,-0.8411,-0.8395,-0.8455,-0.8451,-0.8309,-0.8295,-0.8282,-0.8238,-0.8224,-0.8218,-0.8215,-0.8085,-0.8085,-0.8085,0,0,0,0,0,0,-0.8795,-0.8776,-0.8608,-0.8675,-0.8652,-0.8566,-0.8528,-0.8513,-0.8484,-0.8394,-0.8378,-0.8441,-0.8308,-0.8291,-0.8234,-0.8231,-0.8215,-0.821,-0.8085,-0.8085,-0.8085,-0.815,0,0,0,0,0,0,-0.8801,-0.8779,-0.8766,-0.8676,-0.8649,-0.8564,-0.8528,-0.8511,-0.8474,-0.8467,-0.8377,-0.8361,-0.8307,-0.8244,-0.8228,-0.8223,-0.8205,-0.8084,-0.8085,-0.8085,-0.8148,-0.8152,-0.8156,0,0,0,0,0,-0.8809,-0.879,-0.8766,-0.8747,-0.8632,-0.8564,-0.8549,-0.8487,-0.8474,-0.846,-0.8403,-0.8364,-0.8234,-0.8239,-0.8221,-0.8213,-0.8084,-0.8085,-0.8085,-0.8146,-0.8151,-0.8156,0,0,0,0,0,0,-0.8881,-0.8777,-0.8749,-0.87,-0.8642,-0.855,-0.8531,-0.8495,-0.8438,-0.8434,-0.8359,-0.834,-0.8291,-0.8246,-0.8253,-0.8177,-0.8155,-0.8152,-0.8208,-0.8212,-0.8217,-0.8228,-0.82,0,0,0,0,0,-0.8891,-0.8846,-0.8757,-0.8722,-0.8694,-0.8618,-0.8586,-0.8544,-0.848,-0.8455,-0.8393,-0.8331,-0.8276,-0.8242,-0.8186,-0.8141,-0.812,-0.8126,-0.8131,-0.8135,-0.8133,-0.8106,-0.8108,-0.8086,-0.8086,-0.8086,0,0,-0.8911,-0.8849,-0.8825,-0.8735,-0.8685,-0.8639,-0.8598,-0.855,-0.8515,-0.8447,-0.8391,-0.8343,-0.8269,-0.8219,-0.8193,-0.818,-0.8134,-0.8135,-0.8139,-0.8134,-0.8106,-0.8108,-0.811,-0.8086,-0.8086,-0.8086,0,0,-0.8925,-0.8873,-0.8839,-0.879,-0.8715,-0.8665,-0.8657,-0.8571,-0.8537,-0.848,-0.8428,-0.8384,-0.8291,-0.8241,-0.8203,-0.8199,-0.8161,-0.8183,-0.8205,-0.818,-0.8182,-0.8183,-0.8182,-0.8182,-0.8181,-0.8181,-0.8181,0,-0.8959,-0.8889,-0.8826,-0.8782,-0.8744,-0.8681,-0.8645,-0.86,-0.8511,-0.8485,-0.8472,-0.8355,-0.8301,-0.8238,-0.8237,-0.8208,-0.8196,-0.8193,-0.8187,-0.8187,-0.8187,-0.8185,-0.8185,-0.8185,-0.8184,-0.8184,-0.8184,0,-0.8935,-0.8887,-0.8868,-0.8785,-0.8745,-0.8705,-0.8635,-0.8601,-0.8563,-0.8514,-0.8456,-0.8389,-0.832,-0.8301,-0.8262,-0.8233,-0.8227,-0.8201,-0.8178,-0.8194,-0.8191,-0.8189,-0.8189,-0.8188,-0.8187,-0.8186,0,0,-0.8989,-0.8873,-0.8867,-0.8828,-0.8742,-0.8703,-0.866,-0.8593,-0.8566,-0.8507,-0.8469,-0.8392,-0.8368,-0.8326,-0.8281,-0.8258,-0.826,-0.8235,-0.8232,-0.8242,-0.8223,-0.8243,-0.8243,-0.8234,-0.8234,-0.8234,-0.8229,0,-0.8991,-0.8913,-0.8855,-0.8799,-0.8754,-0.8694,-0.8656,-0.8599,-0.8552,-0.8506,-0.8453,-0.8401,-0.8373,-0.8347,-0.8322,-0.8265,-0.8255,-0.8264,-0.8198,-0.8196,-0.8219,-0.8242,-0.8262,-0.8262,-0.8228,-0.8227,-0.8227,0,-0.8982,-0.8926,-0.8867,-0.8785,-0.8764,-0.8732,-0.8666,-0.8623,-0.8556,-0.8524,-0.8477,-0.8431,-0.8383,-0.8364,-0.8297,-0.8304,-0.8274,-0.8242,-0.824,-0.8231,-0.8213,-0.8234,-0.826,-0.826,-0.8224,-0.8225,-0.8225,0,-0.9028,-0.8938,-0.8891,-0.886,-0.8763,-0.8742,-0.8701,-0.8634,-0.8598,-0.854,-0.8516,-0.8453,-0.8418,-0.837,-0.8308,-0.83,-0.8247,-0.8223,-0.8218,-0.822,-0.8209,-0.8211,-0.8231,-0.8189,-0.8189,-0.8189,-0.8189,0,-0.9036,-0.9002,-0.891,-0.8881,-0.8841,-0.8774,-0.8735,-0.8689,-0.863,-0.859,-0.8534,-0.8497,-0.8418,-0.8371,-0.8322,-0.8274,-0.8258,-0.823,-0.8218,-0.8235,-0.8239,-0.8214,-0.8213,-0.8189,-0.8189,-0.8189,-0.8189,0,-0.9081,-0.9018,-0.8963,-0.8877,-0.8854,-0.8828,-0.8754,-0.8723,-0.8674,-0.8624,-0.8608,-0.853,-0.8473,-0.8406,-0.8326,-0.8293,-0.8249,-0.823,-0.8272,-0.8265,-0.8264,-0.8265,-0.8269,-0.8266,-0.8227,-0.8227,-0.8228,0,-0.909,-0.9063,-0.8974,-0.8944,-0.8905,-0.8857,-0.8821,-0.8753,-0.8717,-0.864,-0.8618,-0.8557,-0.8504,-0.8415,-0.8351,-0.829,-0.8269,-0.8275,-0.8259,-0.8278,-0.8269,-0.8272,-0.8269,-0.8279,-0.828,-0.828,-0.8281,0,-0.9114,-0.9084,-0.9034,-0.8973,-0.8932,-0.888,-0.8826,-0.8804,-0.8726,-0.8688,-0.863,-0.8589,-0.8509,-0.8449,-0.838,-0.8336,-0.8295,-0.8286,-0.8282,-0.83,-0.8326,-0.8312,-0.8284,-0.8286,-0.8286,-0.8286,-0.8285,-0.8285,-0.9141,-0.9114,-0.9048,-0.8994,-0.8947,-0.8898,-0.8865,-0.8812,-0.8763,-0.8693,-0.8656,-0.8598,-0.8532,-0.8435,-0.8393,-0.8346,-0.8333,-0.8326,-0.8324,-0.8324,-0.833,-0.8333,-0.8333,-0.8333,-0.8333,-0.8333,-0.8333,0,-0.9162,-0.9117,-0.9068,-0.8995,-0.8953,-0.892,-0.8858,-0.8825,-0.8775,-0.8718,-0.8668,-0.8601,-0.8542,-0.8474,-0.8411,-0.8387,-0.8366,-0.8372,-0.8373,-0.8364,-0.8345,-0.8356,-0.839,-0.839,-0.839,-0.839,-0.839,-0.839,-0.9168,-0.9121,-0.9084,-0.9012,-0.8967,-0.8911,-0.8879,-0.8834,-0.8787,-0.8716,-0.8668,-0.8624,-0.8561,-0.8494,-0.8438,-0.8419,-0.8399,-0.8411,-0.8387,-0.837,-0.8365,-0.8361,-0.837,-0.8407,-0.8407,-0.8409,-0.8409,-0.8409]},{"header":{"parameterUnit":"m.s-1","parameterCategory":1,"la1":30.2991,"la2":30.254,"lo1":-89.0895,"lo2":-89.0444,"dy":0.0017,"dx":0.0017,"nx":28,"ny":28,"refTime":"2023-08-23T21:00:00:Z","depth":0,"parameterNumber":3,"parameterNumberName":"V-component_of_WINDS"},"data":[0,0,0,0,0,0,0,0,0,0,0,0,0,0,0,0,0,0,0,0,0,0,0,0,0,0,0,0,0,0,0,0,0,0,0,0,0,0,0,0,0,0,0,0,0,0,0,0,0,0,0,0,0,0,0,0,0,0,1.7682,1.7681,0,1.7603,1.7602,1.7601,1.7592,1.7593,1.7594,1.7594,1.7508,1.7505,1.7502,0,0,0,0,0,0,0,0,0,0,0,0,0,1.7821,1.7818,1.7682,1.7681,1.768,1.7603,1.7602,1.7601,1.7592,1.7593,1.7594,1.7595,1.7509,1.7505,1.7501,0,0,0,0,0,0,0,0,0,0,0,0,0,1.7753,1.7817,1.7682,1.7667,1.7664,1.7603,1.7602,1.76,1.7592,1.7593,1.7594,1.7595,1.751,1.7505,1.7501,1.7448,0,0,1.7487,1.7485,0,0,0,0,0,0,0,0,1.7757,1.7748,1.767,1.7668,1.7665,1.7609,1.7619,1.7549,1.7591,1.7619,1.7595,1.7596,1.754,1.7533,1.7515,1.7444,1.744,1.7486,1.7483,1.7481,1.748,0,0,0,0,0,0,0,1.7761,1.7751,1.765,1.7669,1.7666,1.7662,1.7653,1.7605,1.7573,1.7617,1.7616,1.7607,1.7539,1.752,1.7513,1.7439,1.7486,1.7482,1.7479,1.7478,1.7317,1.7316,0,0,0,0,0,0,1.777,1.7755,1.7653,1.7648,1.7715,1.7658,1.7649,1.7625,1.7574,1.7567,1.7606,1.7607,1.7527,1.7518,1.751,1.7442,1.7482,1.7477,1.7475,1.7319,1.7317,1.7315,0,0,0,0,0,0,1.7773,1.7761,1.7656,1.7701,1.7688,1.7655,1.7628,1.7623,1.7604,1.7566,1.756,1.7593,1.7527,1.7516,1.7463,1.7439,1.7475,1.7471,1.732,1.7318,1.7316,1.7308,0,0,0,0,0,0,1.7777,1.7762,1.7743,1.7701,1.7685,1.7612,1.7627,1.7621,1.7597,1.7597,1.7552,1.7545,1.7528,1.747,1.7458,1.7433,1.7467,1.7322,1.7319,1.7317,1.731,1.7306,1.7302,0,0,0,0,0,1.7782,1.7743,1.7742,1.7729,1.7661,1.7611,1.7602,1.7584,1.7595,1.7574,1.755,1.7547,1.7444,1.7465,1.7452,1.7425,1.7324,1.732,1.7317,1.7312,1.7306,1.7302,0,0,0,0,0,0,1.7781,1.7737,1.7735,1.7682,1.7651,1.761,1.7583,1.7579,1.7542,1.7544,1.7522,1.7511,1.7458,1.7437,1.746,1.737,1.7385,1.7379,1.7385,1.738,1.7376,1.7381,1.7463,0,0,0,0,0,1.7775,1.774,1.7703,1.7659,1.7644,1.7616,1.7594,1.7583,1.7548,1.7534,1.7506,1.7471,1.7431,1.7405,1.7366,1.7308,1.7296,1.7283,1.7279,1.7276,1.7269,1.7235,1.7227,1.7304,1.7304,1.7304,0,0,1.7761,1.7733,1.7712,1.7658,1.7633,1.7594,1.7605,1.7565,1.7535,1.7528,1.7475,1.7454,1.7413,1.7357,1.733,1.7337,1.7246,1.7271,1.7269,1.7264,1.723,1.7223,1.7217,1.7302,1.7302,1.7303,0,0,1.7716,1.7693,1.7653,1.7627,1.7589,1.7571,1.7561,1.7521,1.7506,1.7454,1.7447,1.7411,1.7343,1.7314,1.729,1.7234,1.7229,1.7222,1.72,1.7166,1.716,1.7154,1.7132,1.7124,1.7217,1.7217,1.7217,0,1.7703,1.7648,1.7632,1.7592,1.7568,1.7561,1.7519,1.7494,1.7444,1.7427,1.7436,1.7349,1.7321,1.7257,1.7243,1.7225,1.7211,1.7226,1.7162,1.7157,1.7151,1.7129,1.7121,1.7216,1.7216,1.7216,1.7217,0,1.7632,1.7594,1.7566,1.7519,1.7492,1.7451,1.7428,1.7402,1.7393,1.7374,1.7319,1.7287,1.724,1.7224,1.7215,1.7158,1.7163,1.7168,1.7182,1.7143,1.7122,1.7114,1.7215,1.7215,1.7216,1.7216,0,0,1.7583,1.7529,1.7518,1.7496,1.7453,1.7422,1.738,1.7336,1.7313,1.7279,1.7241,1.7184,1.7188,1.7161,1.7149,1.712,1.7074,1.7127,1.7126,1.7116,1.7006,1.7,1.6991,1.7072,1.707,1.7069,1.7008,0,1.7531,1.7457,1.7442,1.7378,1.734,1.7334,1.7297,1.7265,1.7246,1.721,1.7189,1.7147,1.7157,1.714,1.7112,1.7086,1.7051,1.7091,1.7033,1.7032,1.7041,1.698,1.6974,1.6918,1.7,1.6999,1.6998,0,1.746,1.7425,1.7357,1.7318,1.7302,1.7269,1.7227,1.7194,1.7157,1.7145,1.7115,1.7106,1.706,1.7079,1.7013,1.704,1.7016,1.7,1.6998,1.6989,1.701,1.6967,1.69,1.6891,1.6985,1.6986,1.6987,0,1.7427,1.7363,1.7314,1.7296,1.7249,1.7226,1.7206,1.7171,1.7145,1.7107,1.709,1.7047,1.7023,1.699,1.6968,1.6985,1.6903,1.6921,1.6889,1.689,1.687,1.6871,1.6795,1.686,1.686,1.686,1.6861,0,1.7368,1.7326,1.7298,1.7267,1.7219,1.7202,1.7155,1.7134,1.7103,1.7066,1.7059,1.7024,1.7,1.6961,1.6944,1.6891,1.6881,1.6868,1.6863,1.6866,1.6868,1.6848,1.685,1.6858,1.6859,1.6859,1.6859,0,1.7322,1.7302,1.7247,1.7209,1.7198,1.7164,1.7129,1.7098,1.708,1.7033,1.7021,1.6991,1.6945,1.6922,1.6865,1.6853,1.6792,1.6792,1.6805,1.6802,1.677,1.6772,1.6677,1.6662,1.674,1.6739,1.6739,0,1.7284,1.7252,1.721,1.7186,1.7165,1.7126,1.71,1.7082,1.7054,1.701,1.6984,1.6938,1.69,1.6827,1.6798,1.6754,1.675,1.672,1.6743,1.6747,1.6745,1.6746,1.6742,1.6714,1.6714,1.6713,1.6713,0,1.7219,1.7211,1.7174,1.7133,1.7103,1.707,1.7037,1.7017,1.6993,1.6962,1.6916,1.6887,1.6829,1.6782,1.6736,1.6713,1.6707,1.6706,1.6696,1.6697,1.6705,1.6697,1.679,1.6707,1.6708,1.6708,1.6709,1.6709,1.7173,1.7143,1.7109,1.7068,1.7042,1.7011,1.698,1.6958,1.6919,1.6871,1.6863,1.6813,1.6776,1.6713,1.6689,1.6648,1.6654,1.664,1.6636,1.6632,1.6628,1.6714,1.664,1.664,1.664,1.664,1.664,0,1.7105,1.7082,1.7045,1.7,1.6967,1.6968,1.6932,1.6903,1.686,1.6827,1.6791,1.6736,1.6691,1.666,1.6614,1.6587,1.6583,1.6575,1.6575,1.6569,1.6627,1.6639,1.6579,1.6579,1.6579,1.6579,1.6579,1.6579,1.7065,1.7013,1.7001,1.6936,1.6913,1.6866,1.6844,1.6815,1.6789,1.6729,1.6692,1.6673,1.664,1.6591,1.6549,1.654,1.6522,1.6513,1.6505,1.6559,1.6565,1.6571,1.6582,1.6511,1.6511,1.6449,1.6449,1.6448]}]]